Location: Moulis
(42.9609°N, 1.0909°E)
Time: 18:24:18
(UTC+00:00)

Resurs 1-3 - Visible Passes

Search period start: 07 March 2026 00:00
Search period end: 17 March 2026 00:00
Orbit: 612 x 615 km, 97.7° (Epoch: 7 March)

Date Brightness Start Highest point End Pass type
(mag) Time Alt. Az. Time Alt. Az. Time Alt. Az.
7 Mar 6.6 19:26:55 10° SW 19:29:41 17° W 19:32:29 10° NW visible
8 Mar 7.0 19:43:49 10° WSW 19:45:11 11° W 19:46:34 10° WNW visible
9 Mar 7.5 05:52:11 10° ENE 05:53:24 11° E 05:54:37 10° ESE visible
9 Mar 3.7 18:19:46 10° SSE 18:24:03 84° WSW 18:28:23 10° NNW visible
10 Mar 4.4 18:35:11 10° S 18:39:24 56° W 18:43:38 10° NNW visible
11 Mar 5.2 18:50:47 10° SSW 18:54:46 38° W 18:58:48 10° NNW visible
12 Mar 6.0 19:06:35 10° SSW 19:10:11 26° W 19:13:49 10° NW visible
13 Mar 6.6 19:22:40 10° SW 19:25:38 18° W 19:28:36 10° NW visible
14 Mar 6.8 19:39:17 10° WSW 19:41:06 12° W 19:42:55 10° WNW visible
16 Mar 4.2 18:31:04 10° S 18:35:19 62° W 18:39:35 10° NNW visible
